Lamoni, IA

12:12 PM CDT on July 22, 2017 (GMT -0500)
Lamoni Municipal

Weather History for KLWD - September, 2012

Change the Weather History Date:

Wednesday, September 19, 2012

  Actual Average Record
Temperature  
Mean Temperature 64 °F 64 °F  
Max Temperature 80 °F 75 °F 96 °F (1948)
Min Temperature 48 °F 53 °F 32 °F (1991)
Degree Days  
Heating Degree Days 1 3  
Month to date heating degree days 49 33  
Since 1 July heating degree days 50 41  
Cooling Degree Days 0 2  
Month to date cooling degree days 75 76  
Year to date cooling degree days 1286 914  
Growing Degree Days 14 (Base 50)    
Moisture  
Dew Point 45 °F    
Average Humidity 54    
Maximum Humidity 71    
Minimum Humidity 36    
Precipitation  
Precipitation 0.00 in 0.10 in 4.15 in (2010)
Month to date precipitation 0.77 2.41  
Sea Level Pressure  
Sea Level Pressure 29.90 in    
Wind  
Wind Speed 12 mph (SSW)    
Max Wind Speed 25 mph    
Max Gust Speed 31 mph    
Visibility 10 miles    
Events Thunderstorm    
T = Trace of Precipitation, MM = Missing Value Source: NWS Daily Summary

Daily Weather History Graph

Daily Weather History Graph

Search for Another Location

Airport or City:

Trip Planner

Search our weather history database for the weather conditions in past years. The results will help you decide how hot, cold, wet, or windy it might be!

Date:

Astronomy

Sep. 19, 2012 Rise Set
Actual Time 7:00 AM CDT 7:16 PM CDT
Civil Twilight 6:33 AM CDT 7:44 PM CDT
Nautical Twilight 6:01 AM CDT 8:16 PM CDT
Astronomical Twilight 5:28 AM CDT 8:48 PM CDT
Moon 11:13 AM CDT (9/19) 9:25 PM CDT (9/19)
Length of Visible Light 13h 10m
Length of Day
12h 16m
Waxing Crescent, 17% of the Moon is Illuminated
Sep 19
Waxing Crescent
Sep 22
First Quarter
Sep 29
Full
Oct 8
Last Quarter
Oct 15
New

Hourly Weather History & Observations

Time (CDT) Temp. Dew Point Humidity Pressure Visibility Wind Dir Wind Speed Gust Speed Precip Events Conditions
12:53 AM 50.0 °F 37.9 °F 63% 29.99 in 10.0 mi SSE 6.9 mph - N/A   Clear
1:53 AM 48.9 °F 37.9 °F 66% 30.01 in 10.0 mi South 8.1 mph - N/A   Clear
2:53 AM 50.0 °F 37.0 °F 61% 29.99 in 10.0 mi South 9.2 mph - N/A   Clear
3:53 AM 50.0 °F 37.9 °F 63% 29.97 in 10.0 mi South 10.4 mph - N/A   Clear
4:53 AM 48.9 °F 39.0 °F 69% 29.97 in 10.0 mi South 10.4 mph - N/A   Clear
5:53 AM 48.0 °F 39.0 °F 71% 29.96 in 10.0 mi South 9.2 mph - N/A   Clear
6:53 AM 48.9 °F 39.0 °F 69% 29.94 in 10.0 mi South 9.2 mph 18.4 mph N/A   Clear
7:53 AM 51.1 °F 41.0 °F 68% 29.94 in 10.0 mi South 10.4 mph - N/A   Clear
8:53 AM 57.0 °F 43.0 °F 59% 29.93 in 10.0 mi South 17.3 mph 23.0 mph N/A   Clear
9:53 AM 61.0 °F 46.0 °F 58% 29.91 in 10.0 mi SSW 19.6 mph 27.6 mph N/A   Clear
10:53 AM 66.9 °F 46.9 °F 49% 29.90 in 10.0 mi SSW 21.9 mph 28.8 mph N/A   Clear
11:53 AM 71.1 °F 50.0 °F 47% 29.90 in 10.0 mi SSW 17.3 mph 23.0 mph N/A   Clear
12:53 PM 73.0 °F 51.1 °F 46% 29.88 in 10.0 mi SW 12.7 mph 21.9 mph N/A   Clear
1:53 PM 75.9 °F 50.0 °F 40% 29.85 in 10.0 mi SSW 19.6 mph 24.2 mph N/A   Clear
2:53 PM 77.0 °F 52.0 °F 42% 29.82 in 10.0 mi South 18.4 mph 24.2 mph N/A   Clear
3:53 PM 79.0 °F 52.0 °F 39% 29.80 in 10.0 mi SSW 19.6 mph 25.3 mph N/A   Clear
4:53 PM 80.1 °F 52.0 °F 38% 29.80 in 10.0 mi SW 13.8 mph - N/A   Clear
5:53 PM 75.9 °F 53.1 °F 45% 29.81 in 10.0 mi SW 5.8 mph - N/A   Clear
6:53 PM 73.0 °F 55.9 °F 55% 29.82 in 10.0 mi SSW 4.6 mph - N/A   Scattered Clouds
7:18 PM 73.4 °F 55.4 °F 53% 29.83 in 10.0 mi Calm Calm - N/A Thunderstorm Scattered Clouds
7:41 PM 71.6 °F 55.4 °F 57% 29.85 in 10.0 mi Variable 5.8 mph - N/A   Overcast
8:53 PM 68.0 °F 48.9 °F 50% 29.88 in 10.0 mi NNW 10.4 mph - N/A   Partly Cloudy
9:53 PM 68.0 °F 41.0 °F 37% 29.91 in 10.0 mi North 9.2 mph - N/A   Clear
10:53 PM 64.0 °F 37.9 °F 38% 29.94 in 10.0 mi North 10.4 mph - N/A   Clear
11:53 PM 60.1 °F 37.9 °F 44% 29.96 in 10.0 mi NNW 9.2 mph - N/A   Clear